Sidney-Richland, MT

10:04 PM MDT on September 25, 2017 (GMT -0600)
Sidney-Richland Municipal

Weather History for KSDY - July, 2013

Change the Weather History Date:

Tuesday, July 30, 2013

  Actual Average Record
Temperature  
Mean Temperature 65 °F -  
Max Temperature 77 °F 86 °F 105 °F (2007)
Min Temperature 53 °F 55 °F 40 °F (1962)
Growing Degree Days 15 (Base 50)    
Moisture  
Dew Point 54 °F    
Average Humidity 71    
Maximum Humidity 94    
Minimum Humidity 47    
Precipitation  
Precipitation 0.18 in - - ()
Sea Level Pressure  
Sea Level Pressure 30.13 in    
Wind  
Wind Speed 2 mph (West)    
Max Wind Speed 15 mph    
Max Gust Speed 20 mph    
Visibility 10 miles    
Events      
Averages and records for this station are not official NWS values.
T = Trace of Precipitation, MM = Missing Value Source: NWS Daily Summary

Daily Weather History Graph

Daily Weather History Graph

Search for Another Location

Airport or City:

Trip Planner

Search our weather history database for the weather conditions in past years. The results will help you decide how hot, cold, wet, or windy it might be!

Date:

Astronomy

Jul. 30, 2013 Rise Set
Actual Time 5:31 AM MDT 8:33 PM MDT
Civil Twilight 4:55 AM MDT 9:10 PM MDT
Nautical Twilight 4:08 AM MDT 9:56 PM MDT
Astronomical Twilight 3:10 AM MDT 10:54 PM MDT
Moon No Moon Rise 2:54 PM MDT (7/30)
Length of Visible Light 16h 14m
Length of Day
15h 02m
Last Quarter, 40% of the Moon is Illuminated
Jul 30
Last Quarter
Aug 6
New
Aug 14
First Quarter
Aug 20
Full
Aug 28
Last Quarter

Hourly Weather History & Observations

Time (MDT) Temp. Dew Point Humidity Pressure Visibility Wind Dir Wind Speed Gust Speed Precip Events Conditions
12:15 AM 55.4 °F 50.0 °F 82% 30.08 in 10.0 mi Calm Calm - N/A   Clear
12:35 AM 53.6 °F 48.2 °F 82% 30.09 in 10.0 mi Calm Calm - N/A   Clear
12:55 AM 55.4 °F 48.2 °F 77% 30.09 in 10.0 mi Calm Calm - N/A   Clear
1:15 AM 53.6 °F 48.2 °F 82% 30.09 in 10.0 mi Calm Calm - N/A   Clear
1:35 AM 53.6 °F 48.2 °F 82% 30.10 in 10.0 mi Calm Calm - N/A   Clear
2:35 AM 55.4 °F 50.0 °F 82% 30.10 in 10.0 mi Calm Calm - N/A   Clear
3:15 AM 55.4 °F 51.8 °F 88% 30.09 in 10.0 mi Calm Calm - N/A   Clear
3:35 AM 55.4 °F 50.0 °F 82% 30.09 in 10.0 mi Calm Calm - N/A   Clear
3:56 AM 55.4 °F 50.0 °F 82% 30.10 in 10.0 mi Calm Calm - N/A   Clear
4:15 AM 53.6 °F 48.2 °F 82% 30.10 in 10.0 mi Calm Calm - N/A   Clear
4:35 AM 53.6 °F 50.0 °F 88% 30.10 in 10.0 mi Calm Calm - N/A   Clear
4:55 AM 55.4 °F 51.8 °F 88% 30.10 in 10.0 mi Calm Calm - N/A   Clear
5:15 AM 53.6 °F 51.8 °F 94% 30.10 in 10.0 mi Calm Calm - N/A   Clear
5:35 AM 55.4 °F 51.8 °F 88% 30.12 in 10.0 mi Calm Calm - N/A   Mostly Cloudy
5:55 AM 55.4 °F 51.8 °F 88% 30.11 in 10.0 mi Calm Calm - N/A   Overcast
6:15 AM 57.2 °F 53.6 °F 88% 30.11 in 10.0 mi Calm Calm - N/A   Overcast
6:35 AM 57.2 °F 53.6 °F 88% 30.11 in 10.0 mi Calm Calm - 0.01 in   Overcast
6:55 AM 55.4 °F 53.6 °F 94% 30.12 in 9.0 mi SSW 4.6 mph - 0.01 in   Overcast
7:15 AM 57.2 °F 53.6 °F 88% 30.14 in 10.0 mi Calm Calm - 0.01 in   Overcast
7:35 AM 57.2 °F 55.4 °F 94% 30.15 in 10.0 mi Calm Calm - 0.04 in   Overcast
7:55 AM 59.0 °F 55.4 °F 88% 30.16 in 10.0 mi West 6.9 mph - 0.07 in   Overcast
8:15 AM 59.0 °F 57.2 °F 94% 30.13 in 10.0 mi South 15.0 mph - 0.05 in   Overcast
8:35 AM 59.0 °F 57.2 °F 94% 30.15 in 10.0 mi SSW 5.8 mph - 0.09 in   Overcast
8:55 AM 60.8 °F 57.2 °F 88% 30.14 in 10.0 mi Calm Calm - 0.10 in   Mostly Cloudy
9:35 AM 60.8 °F 57.2 °F 88% 30.12 in 10.0 mi SW 3.5 mph - N/A   Mostly Cloudy
9:55 AM 62.6 °F 60.8 °F 94% 30.12 in 10.0 mi SSW 8.1 mph - N/A   Mostly Cloudy
10:15 AM 62.6 °F 60.8 °F 94% 30.13 in 10.0 mi SW 8.1 mph - N/A   Mostly Cloudy
10:35 AM 64.4 °F 59.0 °F 83% 30.15 in 10.0 mi WSW 9.2 mph - N/A   Mostly Cloudy
10:56 AM 66.2 °F 57.2 °F 73% 30.15 in 10.0 mi SW 6.9 mph - N/A   Mostly Cloudy
11:15 AM 66.2 °F 57.2 °F 73% 30.14 in 10.0 mi SSW 9.2 mph - N/A   Mostly Cloudy
11:35 AM 68.0 °F 55.4 °F 64% 30.15 in 10.0 mi West 4.6 mph - N/A   Scattered Clouds
11:55 AM 69.8 °F 55.4 °F 60% 30.16 in 10.0 mi SW 5.8 mph - N/A   Partly Cloudy
12:15 PM 69.8 °F 55.4 °F 60% 30.15 in 10.0 mi Calm Calm - N/A   Scattered Clouds
12:35 PM 69.8 °F 55.4 °F 60% 30.15 in 10.0 mi Calm Calm - N/A   Overcast
12:55 PM 69.8 °F 55.4 °F 60% 30.14 in 10.0 mi Calm Calm - N/A   Scattered Clouds
1:15 PM 71.6 °F 55.4 °F 57% 30.14 in 10.0 mi NW 5.8 mph - N/A   Scattered Clouds
1:35 PM 71.6 °F 55.4 °F 57% 30.14 in 10.0 mi Calm Calm - N/A   Scattered Clouds
1:55 PM 71.6 °F 55.4 °F 57% 30.14 in 10.0 mi Calm Calm - N/A   Scattered Clouds
2:35 PM 73.4 °F 57.2 °F 57% 30.13 in 10.0 mi NW 5.8 mph - N/A   Mostly Cloudy
2:55 PM 75.2 °F 55.4 °F 50% 30.13 in 10.0 mi WNW 11.5 mph 19.6 mph N/A   Scattered Clouds
3:15 PM 75.2 °F 55.4 °F 50% 30.12 in 10.0 mi NW 11.5 mph 18.4 mph N/A   Scattered Clouds
3:55 PM 75.2 °F 55.4 °F 50% 30.13 in 10.0 mi NW 9.2 mph 16.1 mph N/A   Scattered Clouds
4:15 PM 75.2 °F 55.4 °F 50% 30.12 in 10.0 mi NW 5.8 mph - N/A   Scattered Clouds
4:35 PM 75.2 °F 53.6 °F 47% 30.12 in 10.0 mi NNW 10.4 mph - N/A   Scattered Clouds
4:55 PM 77.0 °F 55.4 °F 47% 30.12 in 10.0 mi NW 11.5 mph 19.6 mph N/A   Partly Cloudy
5:15 PM 75.2 °F 53.6 °F 47% 30.12 in 10.0 mi NNW 4.6 mph - N/A   Clear
5:35 PM 75.2 °F 53.6 °F 47% 30.12 in 10.0 mi Calm Calm - N/A   Clear
5:55 PM 75.2 °F 53.6 °F 47% 30.12 in 10.0 mi NW 4.6 mph - N/A   Clear
6:15 PM 75.2 °F 53.6 °F 47% 30.12 in 10.0 mi WNW 8.1 mph - N/A   Partly Cloudy
6:35 PM 73.4 °F 53.6 °F 50% 30.13 in 10.0 mi NW 4.6 mph - N/A   Partly Cloudy
6:55 PM 73.4 °F 53.6 °F 50% 30.12 in 10.0 mi Calm Calm - N/A   Partly Cloudy
7:15 PM 73.4 °F 53.6 °F 50% 30.13 in 10.0 mi Calm Calm - N/A   Partly Cloudy
7:35 PM 71.6 °F 53.6 °F 53% 30.13 in 10.0 mi Calm Calm - N/A   Partly Cloudy
7:55 PM 69.8 °F 55.4 °F 60% 30.13 in 10.0 mi Calm Calm - N/A   Clear
8:15 PM 66.2 °F 55.4 °F 68% 30.13 in 10.0 mi Calm Calm - N/A   Clear
8:35 PM 66.2 °F 57.2 °F 73% 30.13 in 10.0 mi Calm Calm - N/A   Clear
8:55 PM 64.4 °F 55.4 °F 73% 30.14 in 10.0 mi Calm Calm - N/A   Clear
9:15 PM 62.6 °F 55.4 °F 77% 30.16 in 10.0 mi North 8.1 mph - N/A   Clear
9:35 PM 64.4 °F 53.6 °F 68% 30.18 in 10.0 mi North 6.9 mph - N/A   Clear
9:55 PM 64.4 °F 51.8 °F 64% 30.19 in 10.0 mi Calm Calm - N/A   Clear
10:15 PM 60.8 °F 51.8 °F 72% 30.20 in 10.0 mi Calm Calm - N/A   Clear
10:35 PM 59.0 °F 50.0 °F 72% 30.19 in 10.0 mi Calm Calm - N/A   Clear
11:15 PM 60.8 °F 50.0 °F 68% 30.20 in 10.0 mi Calm Calm - N/A   Clear
11:35 PM 59.0 °F 48.2 °F 67% 30.20 in 10.0 mi Calm Calm - N/A   Clear
11:55 PM 55.4 °F 48.2 °F 77% 30.20 in 10.0 mi Calm Calm - N/A   Clear